When you browse on this site, cookies collect data to enhance your experience and personalize the content and advertising you see.
Visit our Privacy Policy to learn more. By continuing to use the site, you agree to this use of cookies and data.
  • In Österreich
  • Länderverzeichnis
  • Für 7 Tage
  • Wassertemperatur
  • Wetterkarte
  • News
  • Widgets
  • user-avatar
    Anmelden

    Stündliche Wetter Eisenstadt

    Heute, 14 Oktober, Montag

    Zeit Temperatur Niederschläge Wind Luftdruck Luftfeuchtigkeit
    00:00 +13°C° 0 mm 2 m/S 725 mmHg 82%
    01:00 +13°C° 0 mm 2 m/S 725 mmHg 84%
    02:00 +13°C° 0 mm 1 m/S 725 mmHg 84%
    03:00 +12°C° 0 mm 1 m/S 724 mmHg 84%
    04:00 +12°C° 0 mm 1 m/S 724 mmHg 83%
    05:00 +12°C° 0 mm 1 m/S 724 mmHg 83%
    06:00 +12°C° 0 mm 1 m/S 724 mmHg 82%
    07:00 +11°C° 0 mm 0 m/S 725 mmHg 81%
    08:00 +15°C° 0 mm 1 m/S 725 mmHg 74%
    09:00 +18°C° 0 mm 1 m/S 725 mmHg 67%
    10:00 +19°C° 0 mm 2 m/S 724 mmHg 60%
    11:00 +20°C° 0 mm 2 m/S 724 mmHg 59%
    12:00 +20°C° 0 mm 3 m/S 724 mmHg 57%
    13:00 +21°C° 0 mm 3 m/S 724 mmHg 56%
    14:00 +21°C° 0 mm 3 m/S 723 mmHg 59%
    15:00 +20°C° 0 mm 3 m/S 723 mmHg 63%
    16:00 +20°C° 0 mm 3 m/S 722 mmHg 67%
    17:00 +18°C° 0 mm 3 m/S 722 mmHg 73%
    18:00 +17°C° 0 mm 3 m/S 722 mmHg 80%
    19:00 +14°C° 0 mm 3 m/S 722 mmHg 87%
    20:00 +14°C° 0 mm 3 m/S 722 mmHg 88%
    21:00 +14°C° 0 mm 3 m/S 722 mmHg 88%
    22:00 +14°C° 0 mm 3 m/S 722 mmHg 89%
    23:00 +13°C° 0 mm 3 m/S 721 mmHg 90%

    Morgen, 15 Oktober, Dienstag

    Zeit Temperatur Niederschläge Wind Luftdruck Luftfeuchtigkeit
    00:00 +13°C° 0 mm 3 m/S 721 mmHg 90%
    01:00 +13°C° 0 mm 3 m/S 721 mmHg 90%
    02:00 +13°C° 0 mm 3 m/S 721 mmHg 91%
    03:00 +12°C° 0 mm 3 m/S 720 mmHg 93%
    04:00 +12°C° 0 mm 3 m/S 720 mmHg 94%
    05:00 +11°C° 0 mm 3 m/S 720 mmHg 94%
    06:00 +11°C° 0 mm 3 m/S 720 mmHg 94%
    07:00 +11°C° 0 mm 3 m/S 720 mmHg 94%
    08:00 +13°C° 0 mm 3 m/S 720 mmHg 86%
    09:00 +14°C° 0 mm 4 m/S 719 mmHg 79%
    10:00 +17°C° 0 mm 4 m/S 719 mmHg 71%
    11:00 +17°C° 0 mm 5 m/S 719 mmHg 67%
    12:00 +19°C° 0 mm 6 m/S 719 mmHg 64%
    13:00 +20°C° 0 mm 7 m/S 719 mmHg 60%
    14:00 +20°C° 0 mm 7 m/S 718 mmHg 62%
    15:00 +20°C° 0 mm 7 m/S 718 mmHg 63%
    16:00 +18°C° 0 mm 7 m/S 717 mmHg 65%
    17:00 +17°C° 0 mm 6 m/S 717 mmHg 69%
    18:00 +16°C° 0 mm 6 m/S 717 mmHg 74%
    19:00 +15°C° 0 mm 6 m/S 717 mmHg 79%
    20:00 +15°C° 0 mm 5 m/S 718 mmHg 81%
    21:00 +14°C° 0 mm 5 m/S 718 mmHg 83%
    22:00 +14°C° 0 mm 4 m/S 719 mmHg 85%
    23:00 +13°C° 0 mm 3 m/S 719 mmHg 87%

    übermorgen, 16 Oktober, Mittwoch

    Zeit Temperatur Niederschläge Wind Luftdruck Luftfeuchtigkeit
    00:00 +14°C° 0 mm 2 m/S 720 mmHg 88%
    01:00 +13°C° 0 mm 1 m/S 720 mmHg 90%
    02:00 +13°C° 0 mm 1 m/S 720 mmHg 88%
    03:00 +13°C° 0 mm 2 m/S 721 mmHg 86%
    04:00 +12°C° 0 mm 2 m/S 721 mmHg 84%
    05:00 +12°C° 0.1 mm 2 m/S 722 mmHg 82%
    06:00 +11°C° 0.1 mm 3 m/S 722 mmHg 79%
    07:00 +11°C° 0.1 mm 3 m/S 723 mmHg 76%
    08:00 +12°C° 0.1 mm 3 m/S 723 mmHg 75%
    09:00 +13°C° 0.1 mm 2 m/S 723 mmHg 73%
    10:00 +13°C° 0.1 mm 2 m/S 724 mmHg 72%
    11:00 +13°C° 0 mm 2 m/S 724 mmHg 72%
    12:00 +14°C° 0 mm 1 m/S 724 mmHg 72%
    13:00 +14°C° 0 mm 1 m/S 724 mmHg 72%
    14:00 +14°C° 0 mm 1 m/S 724 mmHg 73%
    15:00 +14°C° 0 mm 1 m/S 723 mmHg 73%
    16:00 +14°C° 0 mm 1 m/S 723 mmHg 73%
    17:00 +13°C° 0 mm 1 m/S 723 mmHg 78%
    18:00 +12°C° 0 mm 1 m/S 723 mmHg 84%
    19:00 +11°C° 0 mm 1 m/S 723 mmHg 89%
    20:00 +11°C° 0 mm 1 m/S 724 mmHg 88%
    21:00 +10°C° 0 mm 1 m/S 724 mmHg 88%
    22:00 +9°C° 0 mm 2 m/S 724 mmHg 87%
    23:00 +9°C° 0 mm 2 m/S 724 mmHg 87%

    17 Oktober, Donnerstag

    Zeit Temperatur Niederschläge Wind Luftdruck Luftfeuchtigkeit
    00:00 +10°C° 0 mm 1 m/S 724 mmHg 87%
    01:00 +10°C° 0 mm 1 m/S 724 mmHg 88%
    02:00 +10°C° 0 mm 1 m/S 723 mmHg 88%
    03:00 +10°C° 0 mm 1 m/S 723 mmHg 88%
    04:00 +9°C° 0 mm 1 m/S 723 mmHg 88%
    05:00 +9°C° 0 mm 1 m/S 723 mmHg 87%
    06:00 +10°C° 0 mm 1 m/S 723 mmHg 87%
    07:00 +10°C° 0 mm 1 m/S 723 mmHg 87%
    08:00 +12°C° 0 mm 1 m/S 724 mmHg 80%
    09:00 +14°C° 0 mm 1 m/S 724 mmHg 72%
    10:00 +16°C° 0 mm 1 m/S 724 mmHg 65%
    11:00 +17°C° 0 mm 2 m/S 724 mmHg 62%
    12:00 +18°C° 0 mm 2 m/S 724 mmHg 60%
    13:00 +19°C° 0 mm 2 m/S 724 mmHg 57%
    14:00 +18°C° 0 mm 2 m/S 723 mmHg 61%
    15:00 +19°C° 0 mm 1 m/S 723 mmHg 64%
    16:00 +18°C° 0 mm 1 m/S 723 mmHg 68%
    17:00 +16°C° 0 mm 1 m/S 723 mmHg 72%
    18:00 +15°C° 0 mm 1 m/S 723 mmHg 76%
    19:00 +13°C° 0 mm 1 m/S 724 mmHg 80%
    20:00 +13°C° 0 mm 1 m/S 724 mmHg 82%
    21:00 +12°C° 0 mm 1 m/S 724 mmHg 83%
    22:00 +12°C° 0 mm 1 m/S 724 mmHg 84%
    23:00 +12°C° 0 mm 1 m/S 724 mmHg 85%

    18 Oktober, Freitag

    Zeit Temperatur Niederschläge Wind Luftdruck Luftfeuchtigkeit
    00:00 +11°C° 0 mm 0 m/S 724 mmHg 86%
    01:00 +10°C° 0 mm 0 m/S 723 mmHg 86%
    02:00 +10°C° 0 mm 0 m/S 724 mmHg 87%
    03:00 +10°C° 0 mm 0 m/S 724 mmHg 88%
    04:00 +10°C° 0 mm 0 m/S 724 mmHg 89%
    05:00 +10°C° 0 mm 0 m/S 724 mmHg 89%
    06:00 +10°C° 0 mm 0 m/S 724 mmHg 90%
    07:00 +10°C° 0 mm 0 m/S 724 mmHg 90%
    08:00 +11°C° 0 mm 0 m/S 724 mmHg 83%
    09:00 +14°C° 0 mm 1 m/S 724 mmHg 76%
    10:00 +16°C° 0 mm 1 m/S 724 mmHg 69%
    11:00 +18°C° 0 mm 1 m/S 724 mmHg 64%
    12:00 +18°C° 0 mm 2 m/S 724 mmHg 60%
    13:00 +19°C° 0 mm 2 m/S 723 mmHg 55%
    14:00 +18°C° 0 mm 2 m/S 723 mmHg 58%
    15:00 +18°C° 0 mm 2 m/S 723 mmHg 61%
    16:00 +17°C° 0 mm 2 m/S 722 mmHg 64%
    17:00 +16°C° 0 mm 1 m/S 722 mmHg 68%
    18:00 +15°C° 0 mm 1 m/S 722 mmHg 71%
    19:00 +13°C° 0 mm 1 m/S 722 mmHg 75%
    20:00 +13°C° 0 mm 1 m/S 722 mmHg 76%
    21:00 +13°C° 0 mm 1 m/S 722 mmHg 77%
    22:00 +13°C° 0 mm 1 m/S 722 mmHg 78%
    23:00 +12°C° 0 mm 1 m/S 722 mmHg 81%

    19 Oktober, Samstag

    Zeit Temperatur Niederschläge Wind Luftdruck Luftfeuchtigkeit
    00:00 +12°C° 0 mm 1 m/S 722 mmHg 83%
    01:00 +12°C° 0 mm 1 m/S 721 mmHg 86%
    02:00 +11°C° 0 mm 1 m/S 721 mmHg 86%
    03:00 +11°C° 0 mm 1 m/S 721 mmHg 87%
    04:00 +11°C° 0 mm 1 m/S 721 mmHg 88%
    05:00 +11°C° 0 mm 1 m/S 721 mmHg 86%
    06:00 +12°C° 0 mm 1 m/S 721 mmHg 85%
    07:00 +12°C° 0 mm 1 m/S 722 mmHg 83%
    08:00 +13°C° 0 mm 1 m/S 722 mmHg 76%
    09:00 +15°C° 0 mm 1 m/S 722 mmHg 69%
    10:00 +18°C° 0 mm 1 m/S 722 mmHg 62%
    11:00 +18°C° 0 mm 1 m/S 722 mmHg 60%
    12:00 +19°C° 0 mm 1 m/S 722 mmHg 58%
    13:00 +20°C° 0 mm 1 m/S 722 mmHg 55%
    14:00 +19°C° 0 mm 1 m/S 722 mmHg 59%
    15:00 +19°C° 0 mm 1 m/S 721 mmHg 62%
    16:00 +18°C° 0 mm 1 m/S 721 mmHg 65%
    17:00 +16°C° 0 mm 1 m/S 721 mmHg 70%
    18:00 +15°C° 0 mm 1 m/S 721 mmHg 75%
    19:00 +13°C° 0 mm 1 m/S 721 mmHg 80%
    20:00 +13°C° 0 mm 1 m/S 721 mmHg 82%
    21:00 +12°C° 0 mm 2 m/S 721 mmHg 83%
    22:00 +12°C° 0 mm 2 m/S 721 mmHg 84%
    23:00 +12°C° 0 mm 2 m/S 720 mmHg 86%
    Mehr zeigen